This demonstration page uses our WeatherBlox Daily Observations layout. Learn more.

Left ArrowRight Arrow

39.51506, -84.39828

Hourly Observations for May 3, 2019

Temp ( °F °C ) Dew Point ( °F °C ) Humidity (%) Winds ( mph kmh ) Pressure ( in mb ) Visibility ( mi km ) Precip ( " mm )
12:15 am 00:15 Mostly Cloudy 61 16.2 60 15.8 97 97 Calm 30.03 1017 10 16 0.00 0.00
12:35 am 00:35 Cloudy 62 16.5 61 16.1 98 98 Calm 30.04 1017 10 16 0.00 0.00
12:55 am 00:55 Cloudy 62 16.7 61 16.2 97 97 Calm 30.04 1017 10 16 0.00 0.00
1:15 am 01:15 Mostly Cloudy with Mist and Fog 62 16.9 61 16.2 96 96 Calm 30.03 1017 5 8 0.00 0.00
1:35 am 01:35 Clear 62 16.4 61 15.9 97 97 Calm 30.03 1017 10 16 0.00 0.00
1:55 am 01:55 Clear 61 16.1 60 15.8 98 98 WNW 3 6 30.02 1017 7 11 0.00 0.00
2:15 am 02:15 Partly Cloudy 60 15.7 60 15.4 98 98 W 3 6 30.02 1017 7 11 0.00 0.00
2:35 am 02:35 Clear 61 15.9 60 15.7 99 99 Calm 30.01 1016 10 16 0.00 0.00
2:55 am 02:55 Clear 60 15.8 60 15.4 97 97 E 3 6 30.01 1016 10 16 0.00 0.00
3:15 am 03:15 Mostly Cloudy with Mist and Fog 60 15.6 60 15.3 98 98 N 5 7 30.01 1016 7 11 0.00 0.00
3:35 am 03:35 Partly Cloudy 60 15.6 60 15.3 98 98 N 3 6 30.01 1016 7 11 0.00 0.00
3:55 am 03:55 Mostly Cloudy 60 15.7 60 15.5 99 99 Calm 29.99 1016 7 11 0.00 0.00
4:15 am 04:15 Partly Cloudy 61 15.9 60 15.6 98 98 Calm 29.99 1016 7 11 0.00 0.00
4:35 am 04:35 Cloudy 60 15.5 59 15.2 98 98 Calm 30.01 1016 7 11 0.00 0.00
4:55 am 04:55 Cloudy 60 15.7 60 15.4 98 98 Calm 30.00 1016 10 16 0.00 0.00
5:15 am 05:15 Cloudy with Mist and Fog 61 16 60 15.8 99 99 Calm 30.00 1016 7 11 0.00 0.00
5:35 am 05:35 Cloudy 61 16.2 61 15.9 98 98 Calm 30.00 1016 7 11 0.00 0.00
5:55 am 05:55 Cloudy with Nearby Thunderstorms 62 16.8 62 16.4 98 98 Calm 29.99 1016 7 11 0.00 0.00
6:15 am 06:15 Cloudy with Heavy Rain 64 17.5 63 17 97 97 Calm 29.99 1016 3 5 0.06 1.52
6:35 am 06:35 Cloudy with Mist and Fog 63 17.3 62 16.8 97 97 Calm 30.00 1016 4 6 0.10 2.54
6:55 am 06:55 Cloudy with Mist and Fog 63 17.1 62 16.8 98 98 Calm 30.00 1016 1 2 0.32 8.13
7:15 am 07:15 Cloudy with Nearby Thunderstorms 63 17.3 63 17.1 99 99 S 3 6 30.01 1016 3 4 0.06 1.52
7:35 am 07:35 Cloudy with Thunderstorms 63 17.3 63 17 98 98 W 5 7 30.02 1017 2 3 0.27 6.86
7:55 am 07:55 Cloudy with Nearby Thunderstorms 63 17.4 63 17 98 98 Calm 30.01 1016 2 3 0.33 8.38
8:15 am 08:15 Cloudy with Heavy Rain 63 17.2 62 16.6 96 96 NW 8 13 30.03 1017 4 6 0.09 2.29
8:35 am 08:35 Cloudy with Rain 62 16.5 61 16 97 97 N 7 11 30.01 1016 3 4 0.35 8.89
8:55 am 08:55 Cloudy with Light Rain 62 16.6 61 16 96 96 NE 5 7 30.01 1016 10 16 0.37 9.40
9:15 am 09:15 Cloudy with Light Rain 62 16.8 61 16.3 97 97 E 5 7 30.01 1016 10 16 0.01 0.25
9:35 am 09:35 Cloudy with Light Rain 62 16.6 61 16.1 97 97 NNE 6 9 29.99 1016 10 16 0.02 0.51
9:55 am 09:55 Cloudy with Light Rain 62 16.7 61 16.2 97 97 Calm 30.00 1016 10 16 0.04 1.02
10:15 am 10:15 Cloudy with Light Rain 62 16.9 61 16.3 96 96 ESE 3 6 30.00 1016 7 11 0.01 0.25
10:35 am 10:35 Cloudy with Rain 63 17 61 16.2 95 95 Calm 29.99 1016 5 8 0.04 1.02
10:55 am 10:55 Cloudy with Light Rain 63 17.1 61 16.3 95 95 Calm 29.99 1016 5 8 0.06 1.52
11:15 am 11:15 Cloudy with Light Rain 63 17.2 62 16.4 95 95 E 7 11 29.98 1015 7 11 0.03 0.76
11:35 am 11:35 Cloudy with Light Rain 63 17.4 61 16.3 93 93 ESE 7 11 29.98 1015 10 16 0.03 0.76
11:55 am 11:55 Cloudy with Light Rain 64 17.7 61 16.3 92 92 ESE 3 6 29.99 1016 10 16 0.03 0.76
12:15 pm 12:15 Cloudy with Light Rain 64 17.9 62 16.5 92 92 SE 5 7 29.99 1016 10 16 0.00 0.00
12:35 pm 12:35 Cloudy 65 18.3 62 16.5 89 89 SE 3 6 29.99 1016 10 16 0.00 0.00
12:55 pm 12:55 Cloudy 65 18.3 61 16.2 88 88 Calm 29.99 1016 10 16 0.00 0.00
1:15 pm 13:15 Cloudy 65 18.5 62 16.6 89 89 N 5 7 29.98 1015 10 16 0.00 0.00
1:35 pm 13:35 Cloudy 65 18.2 62 16.6 90 90 NNW 3 6 29.98 1015 10 16 0.00 0.00
1:55 pm 13:55 Cloudy 66 18.7 62 16.5 87 87 Calm 29.97 1015 10 16 0.00 0.00
2:15 pm 14:15 Cloudy 66 18.8 62 16.7 88 88 ENE 3 6 29.96 1014 10 16 0.00 0.00
2:35 pm 14:35 Cloudy 67 19.7 63 17 85 85 NE 5 7 29.95 1014 10 16 0.00 0.00
2:55 pm 14:55 Cloudy 68 19.8 62 16.4 81 81 ENE 6 9 29.95 1014 10 16 0.00 0.00
3:15 pm 15:15 Mostly Cloudy 69 20.6 61 16.3 76 76 Calm 29.93 1014 10 16 0.00 0.00
3:35 pm 15:35 Partly Cloudy 70 21.2 62 16.6 75 75 NNE 3 6 29.93 1014 10 16 0.00 0.00
3:55 pm 15:55 Cloudy 72 22 63 17.3 75 75 Calm 29.93 1014 10 16 0.00 0.00
4:15 pm 16:15 Mostly Cloudy 71 21.8 62 16.8 73 73 Calm 29.92 1013 10 16 0.00 0.00
4:35 pm 16:35 Cloudy 71 21.9 61 16.2 70 70 Calm 29.91 1013 10 16 0.00 0.00
4:55 pm 16:55 Mostly Cloudy 72 22.1 61 15.9 68 68 Calm 29.91 1013 10 16 0.00 0.00
5:15 pm 17:15 Cloudy 71 21.6 60 15.8 70 70 Calm 29.91 1013 10 16 0.00 0.00
5:35 pm 17:35 Partly Cloudy 71 21.7 60 15.6 68 68 Calm 29.92 1013 10 16 0.00 0.00
5:55 pm 17:55 Cloudy 71 21.9 61 15.9 69 69 Calm 29.91 1013 10 16 0.00 0.00
6:15 pm 18:15 Cloudy 71 21.9 61 16 69 69 Calm 29.91 1013 10 16 0.00 0.00
6:35 pm 18:35 Partly Cloudy 71 21.5 62 16.4 73 73 W 3 6 29.91 1013 10 16 0.00 0.00
6:55 pm 18:55 Cloudy 70 20.9 63 17.1 79 79 NNW 9 15 29.92 1013 10 16 0.00 0.00
7:15 pm 19:15 Partly Cloudy 69 20.8 63 17.2 80 80 N 8 13 29.91 1013 10 16 0.00 0.00
7:35 pm 19:35 Sunny 68 19.8 62 16.6 82 82 N 9 15 29.92 1013 10 16 0.00 0.00
7:55 pm 19:55 Sunny 66 18.7 61 16.2 85 85 N 7 11 29.93 1013 10 16 0.00 0.00
8:15 pm 20:15 Cloudy 64 18 60 15.6 86 86 N 12 19 29.94 1014 10 16 0.00 0.00
8:35 pm 20:35 Mostly Cloudy 63 17.2 59 15.2 88 88 N 9 15 29.94 1014 10 16 0.00 0.00
8:55 pm 20:55 Cloudy 63 17.2 59 15.1 88 88 NNW 9 15 29.95 1014 10 16 0.00 0.00
9:15 pm 21:15 Cloudy 62 16.8 59 14.8 88 88 N 8 13 29.96 1015 10 16 0.00 0.00
9:35 pm 21:35 Cloudy 62 16.6 58 14.7 89 89 NNW 6 9 29.96 1015 10 16 0.00 0.00
9:55 pm 21:55 Cloudy 61 16.2 58 14.4 89 89 N 6 9 29.97 1015 10 16 0.00 0.00
10:15 pm 22:15 Cloudy 61 15.9 57 14.1 89 89 NNW 8 13 29.97 1015 7 11 0.00 0.00
10:35 pm 22:35 Cloudy with Mist and Fog 60 15.5 57 13.9 90 90 NNW 7 11 29.98 1015 5 8 0.00 0.00
10:55 pm 22:55 Cloudy with Mist and Fog 60 15.3 57 13.8 91 91 NNW 8 13 29.99 1015 5 8 0.00 0.00
11:15 pm 23:15 Cloudy with Mist and Fog 59 15 57 13.7 92 92 NNW 7 11 29.99 1015 5 8 0.00 0.00
11:35 pm 23:35 Cloudy with Mist and Fog 59 14.8 57 13.8 94 94 NNW 7 11 29.99 1015 5 8 0.00 0.00
11:55 pm 23:55 Cloudy with Mist and Fog 58 14.7 57 13.8 94 94 NNW 5 7 29.98 1015 5 8 0.00 0.00

Powered by AerisWeather